Weather History for Sparta, TN

Change the Weather History Date:

Sunday, September 7, 2014

  Actual Average (KCSV) Record (KCSV)
Temperature  
Mean Temperature 72 °F 70 °F  
Max Temperature 75 °F 80 °F 95 °F (1954)
Min Temperature 68 °F 60 °F 45 °F (1988)
Degree Days  
Heating Degree Days 0    
Month to date heating degree days  
Since 1 July heating degree days  
Cooling Degree Days 7    
Month to date cooling degree days  
Year to date cooling degree days  
Growing Degree Days 22 (Base 50)    
Moisture  
Dew Point 69 °F    
Average Humidity 90    
Maximum Humidity 100    
Minimum Humidity 83    
Precipitation  
Precipitation 0.00 in 0.12 in 2.92 in (2009)
Month to date precipitation 0.84  
Year to date precipitation 38.96  
Sea Level Pressure  
Sea Level Pressure 30.08 in    
Wind  
Wind Speed 4 mph (NNE)    
Max Wind Speed 8 mph    
Max Gust Speed -    
Visibility 10 miles    
Events      
T = Trace of Precipitation, MM = Missing Value Source: NWS Daily Summary

Daily Weather History Graph

Daily Weather History Graph

Search for Another Location

Airport:

Trip Planner

Search our weather history database for the weather conditions in past years. The results will help you decide how hot, cold, wet, or windy it might be!

Date:

Astronomy

Sep. 07, 2014 Rise Set
Actual Time 6:18 AM CDT 7:01 PM CDT
Civil Twilight 5:52 AM CDT 7:27 PM CDT
Nautical Twilight 5:21 AM CDT 7:57 PM CDT
Astronomical Twilight 4:50 AM CDT 8:28 PM CDT
Moon 5:59 PM CDT (9/7) 4:32 AM CDT (9/7)
Length of Visible Light 13h 34m
Length of Day
12h 42m
Waxing Gibbous, 97% of the Moon is Illuminated
Sep 7
Waxing Gibbous
Sep 8
Full
Sep 15
Last Quarter
Sep 24
New
Oct 1
First Quarter

Hourly Weather History & Observations

Time (CDT) Temp. Dew Point Humidity Pressure Visibility Wind Dir Wind Speed Gust Speed Precip Events Conditions
12:15 AM 71.6 °F 71.6 °F 100% 30.06 in 10.0 mi Variable 3.5 mph - N/A   Overcast
12:35 AM 71.6 °F 71.6 °F 100% 30.06 in 10.0 mi NNE 3.5 mph - N/A   Overcast
12:55 AM 71.6 °F 71.6 °F 100% 30.05 in 10.0 mi NNE 3.5 mph - N/A   Overcast
1:15 AM 73.4 °F 71.6 °F 94% 30.06 in 10.0 mi North 3.5 mph - N/A   Overcast
1:35 AM 71.6 °F 69.8 °F 94% 30.05 in 10.0 mi Variable 4.6 mph - N/A   Overcast
1:55 AM 71.6 °F 69.8 °F 94% 30.06 in 10.0 mi North 3.5 mph - N/A   Overcast
2:35 AM 71.6 °F 69.8 °F 94% 30.06 in 10.0 mi NE 3.5 mph - N/A   Overcast
2:55 AM 71.6 °F 69.8 °F 94% 30.06 in 10.0 mi NE 3.5 mph - N/A   Overcast
3:15 AM 71.6 °F 69.8 °F 94% 30.06 in 10.0 mi North 4.6 mph - N/A   Overcast
3:35 AM 71.6 °F 69.8 °F 94% 30.06 in 10.0 mi North 3.5 mph - N/A   Overcast
3:55 AM 71.6 °F 69.8 °F 94% 30.06 in 10.0 mi NNE 4.6 mph - N/A   Mostly Cloudy
4:15 AM 71.6 °F 69.8 °F 94% 30.06 in 10.0 mi Calm Calm - N/A   Mostly Cloudy
4:35 AM 71.6 °F 69.8 °F 94% 30.06 in 10.0 mi NE 3.5 mph - N/A   Overcast
4:55 AM 71.6 °F 69.8 °F 94% 30.07 in 10.0 mi Calm Calm - N/A   Overcast
5:15 AM 71.6 °F 69.8 °F 94% 30.07 in 10.0 mi North 3.5 mph - N/A   Overcast
5:35 AM 69.8 °F 68.0 °F 94% 30.07 in 10.0 mi Calm Calm - N/A   Overcast
5:55 AM 69.8 °F 69.8 °F 100% 30.08 in 10.0 mi North 3.5 mph - N/A   Mostly Cloudy
6:15 AM 69.8 °F 68.0 °F 94% 30.08 in 10.0 mi Calm Calm - N/A   Unknown
6:35 AM 69.8 °F 69.8 °F 100% 30.08 in 10.0 mi Calm Calm - N/A   Overcast
6:55 AM 69.8 °F 68.0 °F 94% 30.08 in 10.0 mi North 3.5 mph - N/A   Overcast
7:15 AM 69.8 °F 68.0 °F 94% 30.09 in 10.0 mi Calm Calm - N/A   Overcast
7:35 AM 69.8 °F 69.8 °F 100% 30.09 in 10.0 mi Calm Calm - N/A   Overcast
7:55 AM 71.6 °F 69.8 °F 94% 30.09 in 10.0 mi NNE 5.8 mph - N/A   Overcast
8:15 AM 71.6 °F 69.8 °F 94% 30.09 in 10.0 mi NNE 4.6 mph - N/A   Overcast
8:35 AM 71.6 °F 68.0 °F 88% 30.08 in 10.0 mi NNE 4.6 mph - N/A   Overcast
8:55 AM 71.6 °F 69.8 °F 94% 30.09 in 10.0 mi NNE 4.6 mph - N/A   Overcast
9:15 AM 71.6 °F 69.8 °F 94% 30.09 in 10.0 mi Variable 3.5 mph - N/A   Overcast
9:35 AM 73.4 °F 69.8 °F 88% 30.09 in 10.0 mi NNE 6.9 mph - N/A   Overcast
9:55 AM 73.4 °F 69.8 °F 88% 30.10 in 10.0 mi Variable 4.6 mph - N/A   Overcast
10:15 AM 73.4 °F 69.8 °F 88% 30.10 in 10.0 mi NNE 4.6 mph - N/A   Overcast
10:35 AM 73.4 °F 69.8 °F 88% 30.10 in 10.0 mi NE 3.5 mph - N/A   Overcast
10:55 AM 73.4 °F 69.8 °F 88% 30.11 in 10.0 mi Variable 4.6 mph - N/A   Overcast
11:15 AM 73.4 °F 69.8 °F 88% 30.11 in 10.0 mi North 4.6 mph - N/A   Overcast
11:35 AM 73.4 °F 69.8 °F 88% 30.11 in 10.0 mi Variable 4.6 mph - N/A   Overcast
11:55 AM 75.2 °F 69.8 °F 83% 30.11 in 10.0 mi North 6.9 mph - N/A   Overcast
12:15 PM 73.4 °F 69.8 °F 88% 30.10 in 10.0 mi North 4.6 mph - N/A   Scattered Clouds
12:35 PM 73.4 °F 69.8 °F 88% 30.10 in 10.0 mi NNE 4.6 mph - N/A   Clear
12:55 PM 75.2 °F 69.8 °F 83% 30.10 in 10.0 mi NNE 5.8 mph - N/A   Scattered Clouds
1:15 PM 73.4 °F 69.8 °F 88% 30.10 in 10.0 mi North 5.8 mph - N/A   Partly Cloudy
1:35 PM 73.4 °F 69.8 °F 88% 30.10 in 10.0 mi NNE 6.9 mph - N/A   Partly Cloudy
1:55 PM 75.2 °F 69.8 °F 83% 30.09 in 10.0 mi NNE 3.5 mph - N/A   Mostly Cloudy
2:15 PM 75.2 °F 69.8 °F 83% 30.08 in 10.0 mi Variable 4.6 mph - N/A   Overcast
2:35 PM 73.4 °F 69.8 °F 88% 30.07 in 10.0 mi Variable 5.8 mph - N/A   Overcast
2:55 PM 75.2 °F 69.8 °F 83% 30.06 in 10.0 mi NNE 8.1 mph - N/A   Overcast
3:15 PM 73.4 °F 69.8 °F 88% 30.06 in 10.0 mi North 6.9 mph - N/A   Overcast
3:35 PM 73.4 °F 68.0 °F 83% 30.06 in 10.0 mi Variable 6.9 mph - N/A   Overcast
3:55 PM 73.4 °F 68.0 °F 83% 30.06 in 10.0 mi NE 5.8 mph - N/A   Overcast
4:15 PM 71.6 °F 68.0 °F 88% 30.06 in 10.0 mi NNE 5.8 mph - N/A   Overcast
4:35 PM 71.6 °F 68.0 °F 88% 30.06 in 10.0 mi NE 5.8 mph - N/A   Overcast
4:55 PM 71.6 °F 66.2 °F 83% 30.06 in 10.0 mi NE 6.9 mph - N/A   Overcast
5:15 PM 71.6 °F 66.2 °F 83% 30.06 in 10.0 mi ENE 8.1 mph - N/A   Overcast
5:35 PM 71.6 °F 66.2 °F 83% 30.06 in 10.0 mi NE 5.8 mph - N/A   Overcast
5:55 PM 69.8 °F 66.2 °F 88% 30.06 in 10.0 mi ENE 6.9 mph - N/A   Overcast
6:15 PM 69.8 °F 66.2 °F 88% 30.06 in 10.0 mi NE 4.6 mph - N/A   Overcast
6:35 PM 69.8 °F 66.2 °F 88% 30.06 in 10.0 mi NE 4.6 mph - N/A   Overcast
6:55 PM 69.8 °F 66.2 °F 88% 30.06 in 10.0 mi NNE 5.8 mph - N/A   Overcast
7:15 PM 69.8 °F 66.2 °F 88% 30.06 in 10.0 mi NE 4.6 mph - N/A   Overcast
7:35 PM 69.8 °F 64.4 °F 83% 30.07 in 10.0 mi NE 5.8 mph - N/A   Overcast
7:55 PM 69.8 °F 66.2 °F 88% 30.07 in 10.0 mi NE 4.6 mph - N/A   Overcast
8:15 PM 69.8 °F 66.2 °F 88% 30.08 in 10.0 mi East 5.8 mph - N/A   Overcast
8:35 PM 69.8 °F 64.4 °F 83% 30.08 in 10.0 mi East 6.9 mph - N/A   Overcast
8:55 PM 69.8 °F 66.2 °F 88% 30.09 in 10.0 mi ENE 6.9 mph - N/A   Overcast
9:35 PM 69.8 °F 64.4 °F 83% 30.09 in 10.0 mi ENE 3.5 mph - N/A   Overcast
9:55 PM 69.8 °F 66.2 °F 88% 30.08 in 10.0 mi ENE 4.6 mph - N/A   Overcast
10:15 PM 69.8 °F 66.2 °F 88% 30.08 in 10.0 mi Calm Calm - N/A   Overcast
10:35 PM 69.8 °F 66.2 °F 88% 30.08 in 10.0 mi Calm Calm - N/A   Overcast
11:15 PM 69.8 °F 66.2 °F 88% 30.08 in 10.0 mi Calm Calm - N/A   Overcast
11:35 PM 69.8 °F 66.2 °F 88% 30.08 in 10.0 mi Calm Calm - N/A   Overcast
11:55 PM 68.0 °F 66.2 °F 94% 30.07 in 10.0 mi Calm Calm - N/A   Overcast